This is the latest recevied weather packets stored in our database for station/object CE3MXM-12. If no packets are shown the sender has not sent any weather packets the latest 1 day(s).
| Time | Temp. | Humidity | Pressure | Rain* | Wind** | Luminosity | Snow |
|---|---|---|---|---|---|---|---|
| 1778085335 | 12.78° C | 95% | 1015.6 hPa | - | - | - | - |
| 1778083534 | 12.78° C | 95% | 1015.6 hPa | - | - | - | - |
| 1778083234 | 12.78° C | 95% | 1015.6 hPa | - | - | - | - |
| 1778082934 | 12.78° C | 95% | 1015.6 hPa | - | - | - | - |
| 1778080233 | 12.22° C | 95% | 1015.2 hPa | - | - | - | - |
| 1778079933 | 12.22° C | 95% | 1015.3 hPa | - | - | - | - |
| 1778079633 | 12.22° C | 95% | 1015.3 hPa | - | - | - | - |
| 1778078433 | 12.78° C | 95% | 1015 hPa | - | - | - | - |
| 1778077532 | 12.78° C | 95% | 1014.9 hPa | - | - | - | - |
| 1778077232 | 12.78° C | 95% | 1015.1 hPa | - | - | - | - |
| 1778076932 | 12.78° C | 95% | 1014.8 hPa | - | - | - | - |
| 1778074531 | 11.67° C | 95% | 1014.3 hPa | - | - | - | - |
| 1778074231 | 11.67° C | 95% | 1014 hPa | - | - | - | - |
| 1778073931 | 11.67° C | 95% | 1014.4 hPa | - | - | - | - |
| 1778073331 | 11.67° C | 95% | 1014.1 hPa | - | - | - | - |
| 1778073031 | 11.67° C | 95% | 1014.2 hPa | - | - | - | - |
| 1778072731 | 11.67° C | 95% | 1014 hPa | - | - | - | - |
| 1778071230 | 11.11° C | 95% | 1013.9 hPa | - | - | - | - |
| 1778070930 | 11.11° C | 95% | 1013.8 hPa | - | - | - | - |
| 1778070330 | 11.11° C | 95% | 1013.5 hPa | - | - | - | - |
| 1778069430 | 11.11° C | 95% | 1013.6 hPa | - | - | - | - |
| 1778067929 | 10.56° C | 94% | 1013.3 hPa | - | - | - | - |
| 1778067629 | 10.56° C | 94% | 1013.4 hPa | - | - | - | - |
| 1778064928 | 10.56° C | 94% | 1013.1 hPa | - | - | - | - |
| 1778064628 | 10° C | 94% | 1013.3 hPa | - | - | - | - |
* Rain since midnight (hover to see other rain measurements)
** Current wind speed in m/s (hover to see current wind gust speed)